Location: Fauquembergues
(50.6005°N, 2.0987°E)
Time: 20:27:13
(UTC+00:00)

Cosmos 1378 Rocket - Pass Details

Date: 14 July 2020
Orbit: 602 x 626 km, 82.5° (Epoch: 14 August)

Event Time Altitude Azimuth Distance (km) Brightness Sun altitude
Rises 02:15:06 0° 352° (N) 2,901 7.8 -11.7°
Reaches altitude 10° 02:17:22 10° 356° (N) 1,994 7.0 -11.5°
Maximum altitude 02:21:44 59° 77° (ENE) 720 4.1 -11.1°
Drops below altitude 10° 02:26:06 10° 157° (SSE) 1,991 5.9 -10.7°
Sets 02:28:21 0° 161° (SSE) 2,895 6.6 -10.5°
